This is the latest recevied weather packets stored in our database for station/object W3BRL. If no packets are shown the sender has not sent any weather packets the latest 10 day(s).
| Time | Temp. | Humidity | Pressure | Rain* | Wind** | Luminosity | Snow |
|---|---|---|---|---|---|---|---|
| 1777920058 | 21.67° C | 39% | 1006.3 hPa | 0 mm | - | 829 W/m² | - |
| 1777919755 | 21.67° C | 39% | 1006.3 hPa | 0 mm | - | 812 W/m² | - |
| 1777919453 | 21.67° C | 39% | 1006.3 hPa | 0 mm | - | 834 W/m² | - |
| 1777919150 | 21.67° C | 39% | 1006.3 hPa | 0 mm | - | 205 W/m² | - |
| 1777918847 | 21.67° C | 38% | 1006.4 hPa | 0 mm | - | 826 W/m² | - |
| 1777918544 | 21.67° C | 39% | 1006.5 hPa | 0 mm | - | 814 W/m² | - |
| 1777918242 | 21.67° C | 38% | 1006.5 hPa | 0 mm | - | 850 W/m² | - |
| 1777917941 | 21.67° C | 39% | 1006.6 hPa | 0 mm | - | 287 W/m² | - |
| 1777917639 | 21.11° C | 40% | 1006.6 hPa | 0 mm | - | 872 W/m² | - |
| 1777917336 | 21.11° C | 39% | 1006.7 hPa | 0 mm | - | 850 W/m² | - |
| 1777917034 | 21.11° C | 40% | 1006.8 hPa | 0 mm | - | 895 W/m² | - |
| 1777916732 | 21.11° C | 39% | 1007.1 hPa | 0 mm | - | 885 W/m² | - |
| 1777916428 | 20.56° C | 40% | 1007.1 hPa | 0 mm | - | 913 W/m² | - |
| 1777916125 | 20.56° C | 40% | 1006.9 hPa | 0 mm | - | 802 W/m² | - |
| 1777915822 | 20.56° C | 39% | 1007.1 hPa | 0 mm | - | 909 W/m² | - |
| 1777915518 | 20.56° C | 40% | 1006.9 hPa | 0 mm | - | 946 W/m² | - |
| 1777915215 | 20.56° C | 40% | 1007.3 hPa | 0 mm | - | 944 W/m² | - |
| 1777914912 | 20.56° C | 40% | 1007.1 hPa | 0 mm | - | 830 W/m² | - |
| 1777914608 | 20° C | 40% | 1007.1 hPa | 0 mm | - | 822 W/m² | - |
| 1777914304 | 20° C | 40% | 1007.5 hPa | 0 mm | - | 833 W/m² | - |
| 1777914002 | 20° C | 40% | 1007.6 hPa | 0 mm | - | 827 W/m² | - |
| 1777913698 | 20° C | 41% | 1007.6 hPa | 0 mm | - | 819 W/m² | - |
| 1777913395 | 20° C | 41% | 1007.7 hPa | 0 mm | - | 817 W/m² | - |
| 1777913092 | 20° C | 40% | 1007.8 hPa | 0 mm | - | 797 W/m² | - |
| 1777912788 | 20° C | 40% | 1007.8 hPa | 0 mm | - | 791 W/m² | - |
* Rain latest hour (hover to see other rain measurements)
** Current wind speed in m/s (hover to see current wind gust speed)